D4539 Weather Reports


Display with metric or nautical units.
time (UTC)temp
F
wind
direction
speed
MPH
gust
MPH
rain 1hr
in
rain 24hr
in
rain mn
in
humidity
%
barometer
mb
20260504140512 59 326 10.0 21.0 0.00 0.00 0.00 53 1016.9
20260504130516 56 313 7.0 10.0 0.00 0.00 0.00 56 1016.9
20260504110527 47 269 3.0 7.0 0.00 0.00 0.00 69 1016.5
20260504100527 48 273 4.0 8.0 0.00 0.00 0.00 62 1016.6
20260504081502 47 270 6.0 8.0 0.00 0.00 0.00 60 1016.8
20260504080510 47 258 5.0 7.0 0.00 0.00 0.00 60 1016.8
20260504050510 45 258 3.0 6.0 0.00 0.00 0.00 56 1016.7
20260504045502 48 263 4.0 6.0 0.00 0.00 0.00 51 1016.7
20260504044508 49 279 5.0 8.0 0.00 0.00 0.00 44 1016.6
20260504043516 50 279 4.0 7.0 0.00 0.00 0.00 44 1016.6
20260504042503 49 293 5.0 7.0 0.00 0.00 0.00 45 1016.7
20260504041532 49 284 4.0 6.0 0.00 0.00 0.00 45 1016.6
20260504040515 48 283 5.0 6.0 0.00 0.00 0.00 46 1016.5
20260504035505 48 280 4.0 6.0 0.00 0.00 0.00 46 1016.6
20260504034512 48 278 3.0 6.0 0.00 0.00 0.00 46 1016.6
20260504033502 46 270 5.0 7.0 0.00 0.00 0.00 50 1016.6
20260504032510 45 254 2.0 4.0 0.00 0.00 0.00 51 1016.6
20260504031516 45 256 2.0 4.0 0.00 0.00 0.00 51 1016.5
20260504030504 45 256 4.0 7.0 0.00 0.00 0.00 53 1016.5
20260504025512 45 230 4.0 7.0 0.00 0.00 0.00 53 1016.7
20260504024515 47 232 5.0 7.0 0.00 0.00 0.00 49 1016.7
20260504023503 47 242 5.0 6.0 0.00 0.00 0.00 49 1016.8
20260504022527 48 242 4.0 5.0 0.00 0.00 0.00 48 1016.8
20260504021535 49 254 5.0 7.0 0.00 0.00 0.00 44 1016.6
20260504020522 48 281 5.0 7.0 0.00 0.00 0.00 44 1016.5
20260504015515 49 280 3.0 8.0 0.00 0.00 0.00 44 1016.4
20260504014520 50 267 6.0 10.0 0.00 0.00 0.00 41 1016.4
20260504013506 50 275 4.0 8.0 0.00 0.00 0.00 40 1016.1
20260504012516 50 247 3.0 5.0 0.00 0.00 0.00 41 1016.1
20260504011502 52 275 3.0 6.0 0.00 0.00 0.00 37 1016.0
20260504010508 52 281 3.0 8.0 0.00 0.00 0.00 35 1015.9
20260504005515 52 276 5.0 8.0 0.00 0.00 0.00 36 1015.9
20260504004503 52 257 3.0 6.0 0.00 0.00 0.00 38 1015.7
20260504003508 53 269 3.0 6.0 0.00 0.00 0.00 36 1015.8
20260504002514 54 273 3.0 13.0 0.00 0.00 0.00 34 1015.7
20260504001520 54 296 7.0 13.0 0.00 0.00 0.00 33 1015.8
20260504000508 55 275 4.0 8.0 0.00 0.00 0.00 34 1015.8
20260503235536 56 295 4.0 7.0 0.00 0.00 0.00 34 1015.8
20260503234503 56 270 4.0 9.0 0.00 0.00 0.00 32 1015.8
20260503233512 57 292 7.0 12.0 0.00 0.00 0.00 32 1015.7
20260503232537 58 277 4.0 11.0 0.00 0.00 0.00 32 1015.6
20260503231504 58 262 7.0 13.0 0.00 0.00 0.00 31 1015.5
20260503230512 59 261 10.0 14.0 0.00 0.00 0.00 33 1015.5
20260503225539 59 289 7.0 12.0 0.00 0.00 0.00 31 1015.6
20260503224510 59 229 9.0 18.0 0.00 0.00 0.00 31 1015.6
20260503223521 60 284 8.0 12.0 0.00 0.00 0.00 29 1015.6
20260503222507 60 288 4.0 11.0 0.00 0.00 0.00 30 1015.6
20260503221512 60 257 5.0 13.0 0.00 0.00 0.00 29 1015.6
20260503220518 61 259 6.0 11.0 0.00 0.00 0.00 30 1015.7
20260503215506 61 275 5.0 9.0 0.00 0.00 0.00 29 1015.7
20260503214529 61 261 6.0 15.0 0.00 0.00 0.00 28 1015.8
20260503213512 61 244 7.0 16.0 0.00 0.00 0.00 26 1015.9
20260503212517 61 281 5.0 12.0 0.00 0.00 0.00 33 1016.0
20260503211503 61 294 4.0 11.0 0.00 0.00 0.00 27 1016.1
20260503210510 60 327 8.0 17.0 0.00 0.00 0.00 28 1016.2
20260503205517 60 252 3.0 13.0 0.00 0.00 0.00 28 1016.4
20260503204504 60 278 10.0 14.0 0.00 0.00 0.00 29 1016.5
20260503203509 59 283 2.0 18.0 0.00 0.00 0.00 32 1016.4
20260503202515 59 321 5.0 12.0 0.00 0.00 0.00 33 1016.5
20260503201507 59 309 6.0 13.0 0.00 0.00 0.00 30 1016.7
20260503200536 59 324 8.0 12.0 0.00 0.00 0.00 31 1016.7
20260503195514 59 276 8.0 12.0 0.00 0.00 0.00 39 1016.7
20260503194541 59 327 6.0 12.0 0.00 0.00 0.00 37 1016.9
20260503193505 58 338 3.0 13.0 0.00 0.00 0.00 39 1017.0
20260503192513 58 279 6.0 13.0 0.00 0.00 0.00 36 1017.1
20260503191521 58 300 4.0 9.0 0.00 0.00 0.00 37 1017.2
20260503190505 57 262 7.0 12.0 0.00 0.00 0.00 39 1017.3
20260503185511 57 290 6.0 13.0 0.00 0.00 0.00 34 1017.5
20260503184518 57 284 5.0 17.0 0.00 0.00 0.00 34 1017.5
20260503183504 57 246 4.0 10.0 0.00 0.00 0.00 38 1017.7
20260503182509 56 242 6.0 16.0 0.00 0.00 0.00 35 1017.7
20260503181532 56 310 10.0 15.0 0.00 0.00 0.00 35 1018.0
20260503180515 55 291 7.0 14.0 0.00 0.00 0.00 37 1018.0
20260503175506 54 13 5.0 17.0 0.00 0.00 0.00 37 1018.1
20260503174516 54 348 8.0 16.0 0.00 0.00 0.00 38 1018.3
20260503173504 54 248 11.0 16.0 0.00 0.00 0.00 42 1018.3
20260503172532 53 298 7.0 11.0 0.00 0.00 0.00 42 1018.4
20260503171516 53 314 8.0 16.0 0.00 0.00 0.00 40 1018.5
20260503170501 53 290 7.0 12.0 0.00 0.00 0.00 45 1018.6
20260503150509 47 296 7.0 18.0 0.00 0.00 0.00 46 1019.3